Погода в Монастырке

Россия / Томская область     56°56′36″N   83°43′30″E
темп.,
°C
ветер,
м/с
пор.,
м/с
влажн.,
%
обл.,
%
осадки,
мм/ч
давл.,
гПа
погр.,
м
20 апреля, вт
вт2001:00−14з310945 0.1 1024169
04:00−15з399617 0.0 1024187
07:00−15з3109663 0.0 1025287
10:00−10зсз4683100 0.0 1025685
13:00−6зсз4673100 0.0 10251136
16:00−4зсз4666100 0.1 10231505
19:00−4зюз3676100 0.1 1022724
22:00−6юз3985100 0.1 1022447
21 апреля, ср
ср2101:00−6ююз3995100 0.2 1021551
04:00−6ю41095100 0.4 1019636
07:00−5ю3995100 0.8 1020611
10:00−3ююв4592100 0.7 1021641
13:00−1юв3486100 1.3 1022923
16:000всв3488100 0.7 1024832
19:00−1св4683100 1.4 1027685
22:00−5ссв289275 0.1 1031146
22 апреля, чт
чт2201:00−7ссв39955 0.1 1034167
04:00−10ссв269623 0.0 103698
07:00−10с27955 0.0 1040115
10:00−2с36855 0.0 1041439
13:00+1ссв468491 0.1 10421083
16:00+2ссв357971 0.1 10431111
19:00+1с258291 0.1 1045307
22:00−3с259253 0.0 104776
23 апреля, пт
пт2301:00−5с25955 0.0 104865
04:00−7ссв119727 0.0 104831
07:00−5св22955 0.0 104859
10:000св23835 0.0 1049383
13:00+2св337442 0.0 1047953
16:00+4св346655 0.0 10451135
19:00+3всв137827 0.0 104587
22:00−2св11925 0.0 104516
24 апреля, сб
сб2401:00−4ссв21945 0.0 104333
04:00−4ссв24955 0.0 104277
07:00−3ссв269298 0.0 1040151
10:00+2ссв3576100 0.0 1039476
13:00+5ссв3566100 0.0 1036972
16:00+6ссв3560100 0.0 10351252
19:00+4с138192 0.0 103453
22:00−1с119330 0.0 103412